Hourly Data Report for September 16, 2017

All times are specified in Local Standard Time (LST). Add 1 hour to adjust for Daylight Saving Time where and when it is observed.

CHARLOTTETOWN A
PRINCE EDWARD ISLAND

46°17'21.000" N
63°07'09.000" W
48.50 m
8300301
71706
YYG

Download Data

Hourly Data (September 2017)
Hourly Data Report for September 16, 2017
Temp Definition
°C
Dew Point Temp Definition
°C
Rel Hum Definition
%
Wind Dir Definition
10's deg

Wind Spd Definition
km/h
Visibility Definition
km
Stn Press Definition
kPa
Hmdx Definition


Wind Chill Definition


Weather Definition


TIME
00:00 Legend Double Dagger 13.4 10.6 83 15 10 24.1 101.46     LegendNANA
01:00 Legend Double Dagger 13.2 11.2 88 15 9 24.1 101.44     LegendNANA
02:00 Legend Double Dagger 14.6 13.1 90 19 11 24.1 101.41     Mainly Clear
03:00 Legend Double Dagger 15.3 14.3 94 20 14 24.1 101.39     LegendNANA
04:00 Legend Double Dagger 16.1 15.2 94 22 18 16.1 101.38     LegendNANA
05:00 Legend Double Dagger 16.5 15.8 96 25 17 4.0 101.40     Fog
06:00 Legend Double Dagger 16.5 15.9 97 25 21 4.0 101.38     Fog
07:00 Legend Double Dagger 16.7 16.2 97 22 21 1.2 101.35     Moderate Snow Grains,Fog
08:00 Legend Double Dagger 17.0 16.6 97 25 18 4.0 101.40     Fog
09:00 Legend Double Dagger 17.5 17.0 97 25 16 16.1 101.42     LegendNANA
10:00 Legend Double Dagger 18.4 17.2 92 25 17 19.3 101.38     LegendNANA
11:00 Legend Double Dagger 20.1 17.2 84 23 15 24.1 101.32 26   Mostly Cloudy
12:00 Legend Double Dagger 21.4 17.7 79 23 14 24.1 101.29 27   LegendNANA
13:00 Legend Double Dagger 22.9 17.9 73 26 18 24.1 101.26 29   LegendNANA
14:00 Legend Double Dagger 23.4 18.0 71 25 15 24.1 101.25 29   Mainly Clear
15:00 Legend Double Dagger 23.4 17.6 70 31 18 24.1 101.27 29   LegendNANA
16:00 Legend Double Dagger 17.2 14.0 81 2 31 24.1 101.43     LegendNANA
17:00 Legend Double Dagger 15.7 12.7 82 4 30 24.1 101.43     Mostly Cloudy
18:00 Legend Double Dagger 14.5 12.3 86 4 23 24.1 101.45     LegendNANA
19:00 Legend Double Dagger 14.0 11.8 86 3 16 24.1 101.49     LegendNANA
20:00 Legend Double Dagger 14.4 12.2 86 2 13 24.1 101.58     Cloudy
21:00 Legend Double Dagger 14.2 12.0 86 3 14 24.1 101.64     LegendNANA
22:00 Legend Double Dagger 14.1 12.1 88 5 12 24.1 101.62     LegendNANA
23:00 Legend Double Dagger 14.0 12.0 88 6 6 24.1 101.61     Cloudy

Notes on Data Quality.

Legend

  • E = Estimated
  • M = Missing
  • NA = Not Available
  • ‡ = Partner data that is not subject to review by the National Climate Archives
Date modified: